Location: Tamazert
(32.6352°N, 5.2072°W)
Time: 17:10:20
(UTC+00:00)

Transit 2A Rocket - Pass Details

Date: 05 October 2022
Orbit: 589 x 912 km, 66.7° (Epoch: 07 December)

Event Time Altitude Azimuth Distance (km) Brightness Sun altitude
Rises 14:23:23 0° 339° (NNW) 3,063 7.9 40.8°
Reaches altitude 10° 14:25:40 10° 344° (NNW) 2,191 7.3 40.5°
Maximum altitude 14:30:36 56° 63° (ENE) 900 5.6 39.7°
Drops below altitude 10° 14:36:00 10° 141° (SE) 2,395 7.7 38.8°
Sets 14:38:35 0° 145° (SE) 3,373 8.4 38.4°
